Location: Bastogne Gables
(35.1554°N, 78.9900°W)
Time: 02:33:37
(UTC+00:00)

OAO 3 Rocket - Pass Details

Date: 29 October 2020
Orbit: 629 x 682 km, 35.0° (Epoch: 26 November)

Event Time Altitude Azimuth Distance (km) Brightness Sun altitude
Rises 23:23:01 0° 278° (W) 2,987 8.2 -12.6°
Reaches altitude 10° 23:25:33 10° 270° (W) 2,064 7.2 -13.1°
Maximum altitude 23:29:56 36° 204° (SSW) 1,029 4.5 -14.0°
Drops below altitude 10° 23:34:16 10° 138° (SE) 2,027 5.4 -14.9°
Enters shadow 23:34:31 - 137° (SE) 2,118 5.5 -15.0°
